Murray, KY

10:00 AM CST on December 13, 2019 (GMT -0600)
Kyle-Oakley

Weather History for KCEY - June, 2019

Change the Weather History Date:

Monday, June 10, 2019

  Actual Average (WUND) Record (WUND)
Temperature  
Mean Temperature 70 °F -  
Max Temperature 78 °F - - (-1)
Min Temperature 62 °F - - (-1)
Cooling Degree Days 5    
Growing Degree Days 20 (Base 50)    
Moisture  
Dew Point 58 °F    
Average Humidity 66    
Maximum Humidity 100    
Minimum Humidity 34    
Precipitation  
Precipitation 0.00 in - - ()
Sea Level Pressure  
Sea Level Pressure 30.09 in    
Wind  
Wind Speed 9 mph (NW)    
Max Wind Speed 21 mph    
Max Gust Speed 29 mph    
Visibility 10 miles    
Events      
Averages and records for this station are not official NWS values.
T = Trace of Precipitation, MM = Missing Value Source: NWS Daily Summary

Daily Weather History Graph

Daily Weather History Graph

Search for Another Location

Airport or City:

Astronomy

Jun. 10, 2019 Rise Set
Actual Time 5:34 AM CDT 8:11 PM CDT
Civil Twilight 5:03 AM CDT 8:42 PM CDT
Nautical Twilight 4:26 AM CDT 9:20 PM CDT
Astronomical Twilight 3:43 AM CDT 10:02 PM CDT
Moon 1:14 PM CDT (6/10) 1:32 AM CDT (6/10)
Length of Visible Light 15h 38m
Length of Day
14h 37m
First Quarter, 55% of the Moon is Illuminated
Jun 10
First Quarter
Jun 17
Full
Jun 25
Last Quarter
Jul 2
New
Jul 9
First Quarter

Hourly Weather History & Observations

Time (CDT) Temp. Dew Point Humidity Pressure Visibility Wind Dir Wind Speed Gust Speed Precip Events Conditions
12:15 AM 71.6 °F 71.6 °F 100% 29.95 in 10.0 mi West 5.8 mph - N/A   Clear
12:35 AM 71.6 °F 71.6 °F 100% 29.95 in 10.0 mi West 6.9 mph - N/A   Clear
12:55 AM 71.6 °F 71.6 °F 100% 29.95 in 10.0 mi West 4.6 mph - N/A   Clear
1:15 AM 71.6 °F 71.6 °F 100% 29.94 in 10.0 mi West 4.6 mph - N/A   Clear
1:35 AM 71.6 °F 71.6 °F 100% 29.94 in 10.0 mi West 5.8 mph - N/A   Clear
1:55 AM 71.6 °F 71.6 °F 100% 29.94 in 10.0 mi West 5.8 mph - N/A   Clear
2:15 AM 71.6 °F 71.6 °F 100% 29.94 in 10.0 mi West 5.8 mph - N/A   Clear
2:35 AM 69.8 °F 69.8 °F 100% 29.94 in 10.0 mi WNW 5.8 mph - N/A   Clear
2:55 AM 69.8 °F 69.8 °F 100% 29.95 in 10.0 mi West 4.6 mph - N/A   Clear
3:15 AM 69.8 °F 69.8 °F 100% 29.95 in 10.0 mi West 3.5 mph - N/A   Clear
3:35 AM 68.0 °F 68.0 °F 100% 29.96 in 10.0 mi West 4.6 mph - N/A   Clear
3:55 AM 68.0 °F 68.0 °F 100% 29.97 in 10.0 mi West 5.8 mph - N/A   Clear
4:15 AM 68.0 °F 68.0 °F 100% 29.98 in 10.0 mi West 6.9 mph - N/A   Clear
4:35 AM 68.0 °F 68.0 °F 100% 29.98 in 10.0 mi WNW 9.2 mph - N/A   Clear
4:55 AM 69.8 °F 69.8 °F 100% 29.99 in 10.0 mi NW 10.4 mph - N/A   Clear
5:15 AM 69.8 °F 69.8 °F 100% 30.00 in 10.0 mi NW 8.1 mph - N/A   Clear
5:35 AM 69.8 °F 69.8 °F 100% 30.01 in 10.0 mi WNW 6.9 mph - N/A   Clear
5:55 AM 68.0 °F 68.0 °F 100% 30.02 in 10.0 mi NW 8.1 mph - N/A   Clear
6:15 AM 68.0 °F 68.0 °F 100% 30.03 in 10.0 mi NW 10.4 mph - N/A   Clear
6:35 AM 69.8 °F 69.8 °F 100% 30.04 in 10.0 mi NW 13.8 mph 23.0 mph N/A   Clear
6:55 AM 69.8 °F 68.0 °F 94% 30.04 in 10.0 mi NNW 10.4 mph 20.7 mph N/A   Clear
7:15 AM 71.6 °F 69.8 °F 94% 30.05 in 10.0 mi NW 15.0 mph 20.7 mph N/A   Clear
8:55 AM 71.6 °F 64.4 °F 78% 30.09 in 10.0 mi WNW 12.7 mph - N/A   Scattered Clouds
9:15 AM 73.4 °F 62.6 °F 69% 30.10 in 10.0 mi NW 10.4 mph - N/A   Mostly Cloudy
9:35 AM 73.4 °F 60.8 °F 65% 30.10 in 10.0 mi NW 13.8 mph 25.3 mph N/A   Partly Cloudy
9:55 AM 73.4 °F 62.6 °F 69% 30.10 in 10.0 mi NNW 13.8 mph 19.6 mph N/A   Clear
10:15 AM 73.4 °F 60.8 °F 65% 30.11 in 10.0 mi NW 16.1 mph 21.9 mph N/A   Clear
10:35 AM 73.4 °F 60.8 °F 65% 30.12 in 10.0 mi NNW 10.4 mph 21.9 mph N/A   Clear
10:55 AM 75.2 °F 60.8 °F 61% 30.11 in 10.0 mi WNW 12.7 mph - N/A   Clear
11:15 AM 75.2 °F 59.0 °F 57% 30.12 in 7.0 mi WNW 16.1 mph - N/A   Clear
11:35 AM 75.2 °F 59.0 °F 57% 30.12 in 10.0 mi NNW 13.8 mph 20.7 mph N/A   Clear
11:55 AM 75.2 °F 59.0 °F 57% 30.12 in 10.0 mi NW 15.0 mph 21.9 mph N/A   Clear
12:15 PM 75.2 °F 59.0 °F 57% 30.13 in 10.0 mi NW 11.5 mph 23.0 mph N/A   Clear
12:35 PM 77.0 °F 57.2 °F 50% 30.13 in 10.0 mi NNW 18.4 mph 24.2 mph N/A   Clear
12:55 PM 75.2 °F 57.2 °F 53% 30.13 in 10.0 mi NNW 15.0 mph 20.7 mph N/A   Clear
1:15 PM 77.0 °F 55.4 °F 47% 30.13 in 10.0 mi NW 17.3 mph 25.3 mph N/A   Clear
1:35 PM 77.0 °F 55.4 °F 47% 30.13 in 10.0 mi NW 20.7 mph 28.8 mph N/A   Clear
1:55 PM 77.0 °F 57.2 °F 50% 30.13 in 10.0 mi NNW 13.8 mph 20.7 mph N/A   Clear
2:15 PM 77.0 °F 55.4 °F 47% 30.12 in 10.0 mi NNW 13.8 mph 21.9 mph N/A   Clear
2:35 PM 77.0 °F 55.4 °F 47% 30.13 in 10.0 mi NW 17.3 mph 23.0 mph N/A   Clear
2:55 PM 77.0 °F 53.6 °F 44% 30.13 in 10.0 mi NNW 17.3 mph 21.9 mph N/A   Clear
3:15 PM 77.0 °F 50.0 °F 39% 30.14 in 10.0 mi NNW 16.1 mph 24.2 mph N/A   Clear
3:35 PM 77.0 °F 51.8 °F 41% 30.13 in 10.0 mi North 16.1 mph 24.2 mph N/A   Clear
3:55 PM 77.0 °F 50.0 °F 39% 30.13 in 10.0 mi NNW 13.8 mph 24.2 mph N/A   Clear
4:15 PM 77.0 °F 48.2 °F 36% 30.14 in 10.0 mi NNW 19.6 mph 25.3 mph N/A   Clear
4:35 PM 78.8 °F 48.2 °F 34% 30.14 in 10.0 mi NW 12.7 mph 23.0 mph N/A   Clear
4:55 PM 77.0 °F 46.4 °F 34% 30.14 in 10.0 mi NNW 18.4 mph 27.6 mph N/A   Clear
5:15 PM 77.0 °F 46.4 °F 34% 30.13 in 10.0 mi NNW 10.4 mph 21.9 mph N/A   Clear
5:35 PM 77.0 °F 48.2 °F 36% 30.13 in 10.0 mi NNW 11.5 mph 19.6 mph N/A   Clear
5:55 PM 77.0 °F 46.4 °F 34% 30.14 in 10.0 mi NNW 17.3 mph 23.0 mph N/A   Clear
6:15 PM 77.0 °F 46.4 °F 34% 30.14 in 10.0 mi NNW 9.2 mph - N/A   Clear
6:35 PM 77.0 °F 46.4 °F 34% 30.14 in 10.0 mi NNW 10.4 mph 20.7 mph N/A   Clear
6:55 PM 75.2 °F 46.4 °F 36% 30.15 in 10.0 mi NNW 10.4 mph 16.1 mph N/A   Clear
7:15 PM 75.2 °F 46.4 °F 36% 30.15 in 10.0 mi NNW 11.5 mph - N/A   Clear
7:35 PM 73.4 °F 48.2 °F 41% 30.16 in 10.0 mi North 5.8 mph - N/A   Clear
7:55 PM 71.6 °F 48.2 °F 43% 30.16 in 10.0 mi NNW 4.6 mph - N/A   Clear
8:15 PM 71.6 °F 46.4 °F 41% 30.16 in 10.0 mi NNW 3.5 mph - N/A   Clear
8:35 PM 68.0 °F 48.2 °F 49% 30.15 in 10.0 mi NW 3.5 mph - N/A   Clear
8:55 PM 68.0 °F 50.0 °F 52% 30.15 in 10.0 mi NW 4.6 mph - N/A   Clear
9:15 PM 66.2 °F 50.0 °F 56% 30.16 in 10.0 mi NW 4.6 mph - N/A   Clear
9:35 PM 66.2 °F 50.0 °F 56% 30.17 in 10.0 mi WNW 5.8 mph - N/A   Clear
9:55 PM 64.4 °F 50.0 °F 59% 30.18 in 10.0 mi WNW 4.6 mph - N/A   Clear
10:15 PM 64.4 °F 50.0 °F 59% 30.18 in 10.0 mi WNW 3.5 mph - N/A   Clear
10:35 PM 62.6 °F 51.8 °F 68% 30.17 in 10.0 mi NW 5.8 mph - N/A   Clear
10:55 PM 64.4 °F 50.0 °F 59% 30.18 in 10.0 mi NW 4.6 mph - N/A   Clear
11:15 PM 64.4 °F 50.0 °F 59% 30.18 in 10.0 mi NW 4.6 mph - N/A   Clear
11:35 PM 62.6 °F 50.0 °F 63% 30.18 in 10.0 mi NW 5.8 mph - N/A   Clear
11:55 PM 62.6 °F 50.0 °F 63% 30.18 in 10.0 mi NW 5.8 mph - N/A   Clear